Bettles, AK

5:55 PM AKDT on July 18, 2019 (GMT -0800)
Bettles

Weather History for PABT - May, 2019

Change the Weather History Date:

Saturday, May 25, 2019

  Actual Average Record
Temperature  
Mean Temperature 54 °F -  
Max Temperature 70 °F 60 °F 80 °F (2002)
Min Temperature 37 °F 38 °F 29 °F (2000)
Degree Days  
Heating Degree Days 12    
Growing Degree Days 4 (Base 50)    
Moisture  
Dew Point 28 °F    
Average Humidity 35    
Maximum Humidity 70    
Minimum Humidity 12    
Precipitation  
Precipitation 0.00 in - - ()
Sea Level Pressure  
Sea Level Pressure 29.97 in    
Wind  
Wind Speed 3 mph (SSW)    
Max Wind Speed 7 mph    
Max Gust Speed -    
Visibility 10 miles    
Events      
Averages and records for this station are not official NWS values.
T = Trace of Precipitation, MM = Missing Value Source: NWS Daily Summary

Daily Weather History Graph

Daily Weather History Graph

Search for Another Location

Airport or City:

Astronomy

May. 25, 2019 Rise Set
Actual Time 3:24 AM AKDT 12:46 AM AKDT
Civil Twilight Sun does not set Sun does not set
Nautical Twilight Sun does not set Sun does not set
Astronomical Twilight Sun does not set Sun does not set
Moon 4:37 AM AKDT (5/25) 10:51 AM AKDT (5/25)
Length of Visible Light 24h 00m
Length of Day
21h 22m
Waning Gibbous, 58% of the Moon is Illuminated
May 25
Waning Gibbous
May 26
Last Quarter
Jun 3
New
Jun 9
First Quarter
Jun 17
Full

Hourly Weather History & Observations

Time (AKDT) Temp. Windchill Dew Point Humidity Pressure Visibility Wind Dir Wind Speed Gust Speed Precip Events Conditions
12:53 AM 46.9 °F - 27.0 °F 46% 30.09 in 10.0 mi SSW 3.5 mph - N/A   Mostly Cloudy
1:53 AM 42.1 °F 39.2 °F 27.0 °F 55% 30.10 in 10.0 mi SE 4.6 mph - N/A   Scattered Clouds
2:53 AM 39.0 °F 35.7 °F 25.0 °F 57% 30.10 in 10.0 mi SE 4.6 mph - N/A   Partly Cloudy
3:53 AM 39.9 °F 36.7 °F 25.0 °F 55% 30.10 in 10.0 mi SE 4.6 mph - N/A   Partly Cloudy
4:53 AM 39.0 °F - 28.0 °F 65% 30.10 in 10.0 mi Calm Calm - N/A   Partly Cloudy
5:53 AM 37.9 °F - 28.9 °F 70% 30.10 in 10.0 mi Calm Calm - N/A   Partly Cloudy
6:53 AM 43.0 °F 41.3 °F 28.0 °F 56% 30.09 in 10.0 mi NNE 3.5 mph - N/A   Partly Cloudy
7:53 AM 46.9 °F - 28.0 °F 48% 30.09 in 10.0 mi Calm Calm - N/A   Partly Cloudy
8:53 AM 51.1 °F - 27.0 °F 39% 30.06 in 10.0 mi Calm Calm - N/A   Partly Cloudy
9:53 AM 53.1 °F - 28.0 °F 38% 30.05 in 10.0 mi Calm Calm - N/A   Partly Cloudy
10:53 AM 57.0 °F - 28.0 °F 33% 30.03 in 10.0 mi Calm Calm - N/A   Partly Cloudy
11:53 AM 61.0 °F - 28.9 °F 30% 30.02 in 10.0 mi NW 3.5 mph - N/A   Partly Cloudy
12:53 PM 62.1 °F - 28.9 °F 29% 29.99 in 10.0 mi Calm Calm - N/A   Clear
1:53 PM 64.9 °F - 28.0 °F 25% 29.96 in 10.0 mi Calm Calm - N/A   Clear
2:53 PM 66.9 °F - 28.9 °F 24% 29.93 in 10.0 mi Variable 5.8 mph - N/A   Clear
3:53 PM 66.9 °F - 27.0 °F 22% 29.91 in 10.0 mi NW 4.6 mph - N/A   Clear
4:53 PM 66.9 °F - 25.0 °F 21% 29.89 in 10.0 mi SW 6.9 mph - N/A   Clear
5:53 PM 69.1 °F - 19.0 °F 15% 29.87 in 10.0 mi SSE 6.9 mph - N/A   Partly Cloudy
6:53 PM 69.1 °F - 23.0 °F 18% 29.85 in 10.0 mi SSW 4.6 mph - N/A   Partly Cloudy
7:53 PM 68.0 °F - 27.0 °F 21% 29.82 in 10.0 mi SW 4.6 mph - N/A   Partly Cloudy
8:53 PM 69.1 °F - 27.0 °F 21% 29.81 in 10.0 mi WNW 3.5 mph - N/A   Partly Cloudy
9:53 PM 68.0 °F - 30.0 °F 24% 29.79 in 10.0 mi Calm Calm - N/A   Partly Cloudy
10:53 PM 62.1 °F - 36.0 °F 38% 29.78 in 10.0 mi NNE 3.5 mph - N/A   Scattered Clouds
11:53 PM 57.9 °F - 36.0 °F 44% 29.78 in 10.0 mi NNE 3.5 mph - N/A   Scattered Clouds